Location: Newark
(41.0400°S, 62.7845°W)
Time: 02:25:53
(UTC+00:00)

Vanguard 2 Rocket - Pass Details

Date: 30 November 2021
Orbit: 554 x 3325 km, 32.9° (Epoch: 21 January)

Event Time Altitude Azimuth Distance (km) Brightness Sun altitude
Rises 14:27:42 0° 270° (W) 5,448 10.6 62.6°
Reaches altitude 10° 14:32:15 10° 276° (W) 3,957 10.1 63.3°
Maximum altitude 14:40:43 37° 338° (NNW) 1,670 9.0 64.5°
Drops below altitude 10° 14:45:56 10° 45° (NE) 2,426 9.7 65.2°
Sets 14:48:06 0° 54° (NE) 3,149 10.0 65.5°
